sat.trackr.live / text

‹ back to catalog

CZ-10B DEB

NORAD 69973 · 2026-158B

DEBRIS UNKNOWN UNKNOWN

§ Identity

Operator
Country
PRC
Launch date
2026-07-10
Launch site
WSC
Launch vehicle
Mass (kg)
RCS (m²)

External: N2YO · Heavens-Above · Gunter

§ Orbital elements

Epoch: 2026-08-08T07:46:23.708064Z

Period
101.06 min
Inclination
49.9831°
Eccentricity
0.0006016
Mean motion
14.24905278 rev/d
Perigee alt
804.5 km
Apogee alt
813.1 km
Semi-major
7,186.9 km
B*
6.7771e-5
RAAN
178.6327°
Arg perigee
34.2447°
Mean anomaly
325.8853°
Rev number
414

§ Raw data

CZ-10B DEB1 69973U 26158B   26220.32388551 -.00000001  00000+0  67771-4 0  99962 69973  49.9831 178.6327 0006016  34.2447 325.8853 14.24905278  4146

JSON: /api/v1/satellites/69973 · /tle

For live sub-satellite position, see the globe view (requires WebGL).

§ Visibility from observer

Set your observer location to see the next 7 days of passes ≥ 10°. The values pass through the URL so the page stays shareable.

No JS? Fill the form by hand. The geolocation button needs JavaScript.